Regional Weather Roundup
Issued by NWS

Home | Current Version | Previous Version | Text Only | Print | Product List | Glossary Off
Versions: 1 2 3 4 5 6 7 8 9 10 11 12 13 14 15 16 17 18 19 20 21 22 23 24 25 26 27 28 29 30 31 32 33 34 35 36 37 38 39 40 41 42 43 44 45 46 47 48 49 50

678
ASUS43 KDTX 210401
RWRMI
MICHIGAN HOURLY REGIONAL WEATHER ROUNDUP
NATIONAL WEATHER SERVICE DETROIT/PONTIAC MI
1100 PM EST FRI JAN 20 2017

NOTE: "FAIR" INDICATES FEW OR NO CLOUDS BELOW 12,000 FEET WITH NO
SIGNIFICANT WEATHER AND/OR OBSTRUCTION TO VISIBILITY.

MIZ047>049-052>055-059>063-066>070-074>076-081>083-210500-
SOUTHEAST LOWER MICHIGAN

CITY           SKY/WX    TMP DP  RH WIND       PRES   REMARKS
ADRIAN         FOG       41  41 100 CALM      29.74F VSB 1/4
ALMA           FOG       33  33  99 CALM      29.73R VSB 1/2
ANN ARBOR      FOG       41  41 100 S5        29.74S VSB 1/2
BAD AXE        FOG       34  34 100 W7        29.74S VSB 1   WCI  28
CARO           CLOUDY    35  35 100 CALM      29.73S FOG
DETROIT CITY   CLOUDY    42  42 100 S5        29.75S FOG
DETROIT        FOG       41  41 100 S5        29.75F VSB 1/4
FLINT          FOG       36  36 100 CALM      29.74R VSB 1/2
GROSSE ILE     FOG       36  36  99 SE3       29.75S VSB 1/4
HILLSDALE      FOG       41  41 100 S6        29.72R VSB 1/4
HOWELL         FOG       38  37  97 CALM      29.72S VSB 1/2

CITY           SKY/WX    TMP DP  RH WIND       PRES   REMARKS
JACKSON        CLOUDY    42  41  96 CALM      29.72S FOG
LAMBERTVILLE   MOCLDY    46  44  93 S3        29.74F FOG
LANSING        FOG       38  36  92 SE3       29.72S VSB 3/4
LAPEER         FOG       37  37 100 S5        29.74S VSB 1/2 WCI  33
MASON          FOG       38  38 100 CALM      29.72S VSB 1/4
MONROE         FOG       39  39 100 CALM      29.74F VSB 1/2
MT. CLEMENS    CLOUDY    37  37 100 CALM      29.73S FOG
PONTIAC        FOG       39  37  92 CALM      29.72S VSB 1/2
PORT HOPE        N/A     35  34  96 VRB3      29.73R
PORT HURON     FOG       36  36 100 CALM      29.76R VSB 1/4
TRI CITIES     CLOUDY    34  34 100 CALM      29.74S FOG
MIDLAND        CLOUDY    35  34  96 CALM      29.73R FOG
TROY           CLOUDY    40  39  95 SW5       29.76S FOG
SAGINAW HB     CLOUDY    34  32  93 CALM      29.74R FOG
$$
MIZ043>046-050>051-056>058-064>065-071>073-077>080-210500-
SOUTHWEST LOWER MICHIGAN

CITY           SKY/WX    TMP DP  RH WIND       PRES   REMARKS
BATTLE CREEK   CLOUDY    42  42 100 S7        29.70F FOG
BENTON HARBOR  CLOUDY    45  43  93 SE7       29.67F FOG
BIG RAPIDS     FOG       32  32  99 CALM      29.70S VSB 3/4
COLDWATER      CLOUDY    44  44 100 SE6       29.71S FOG
FREMONT        FOG       34  34 100 E5        29.70S VSB 3/4 WCI  30
HOLLAND        CLOUDY    39  38  96 E5        29.69F
GRAND RAPIDS   FOG       36  35  96 E5        29.70S VSB 3/4 WCI  32
IONIA          FOG       34  34 100 E3        29.71R VSB 1/2
KALAMAZOO      FOG       43  40  89 S5        29.70S VSB 1/2
LUDINGTON      CLOUDY    34  34 100 E3        29.69F FOG
MARSHALL       CLOUDY    42  42  99 CALM      29.71S FOG
MOUNT PLEASANT CLOUDY    33  33  99 CALM      29.72R FOG
MUSKEGON       FOG       37  36  96 E3        29.70S VSB 3/4
SOUTH HAVEN    CLOUDY    42  42  99 SE3       29.68F FOG
$$
MIZ016>042-210500-
NORTHERN LOWER MICHIGAN

CITY           SKY/WX    TMP DP  RH WIND       PRES   REMARKS
ALPENA         FOG       33  33 100 CALM      29.72S VSB 1/4
BEAVER ISLAND  CLOUDY    34  34 100 SE6       29.70S FOG     WCI  29
BELLAIRE       CLOUDY    35  34  96 CALM      29.71S
CADILLAC       FOG       32  31  96 S6        29.69R VSB 1/2 WCI  26
CHARLEVOIX     CLOUDY    34  34 100 SE3       29.72F FOG
FRANKFORT      CLOUDY    35  34  96 S3        29.70S
GAYLORD        FOG       35  31  85 SE3       29.68S VSB 1/4
GRAYLING       CLOUDY    33  33  99 CALM      29.71R FOG
HARBOR SPRINGS CLOUDY    33  33 100 E5        29.70F FOG     WCI  28
HOUGHTON LAKE  FOG       33  32  96 S3        29.70S VSB 1
MANISTEE       CLOUDY    34  33  96 SE5       29.70F WCI  30
OSCODA         FOG       35  34  97 CALM      29.73R VSB 1/4
PELLSTON       FOG       33  32  96 SE3       29.71F VSB 1
ROGERS CITY    FOG       33  32  96 CALM      29.73S VSB 1/4
TRAVERSE CITY  CLOUDY    37  33  85 CALM      29.70S
$$
MIZ007>008-015-210500-
EASTERN UPPER MICHIGAN

CITY           SKY/WX    TMP DP  RH WIND       PRES   REMARKS
KINROSS        MIX PCPN  32  32 100 SE7       29.72S FOG     WCI  26
MACKINAC ISLAN LGT SNOW  33  33 100 CALM      29.71S
NEWBERRY       MIX PCPN  32  31  96 E3        29.69F
S. S. MARIE    LGT RAIN  33  32  96 E5        29.71S VSB 3/4 WCI  29
MUNISING         N/A     34  33  96 VRB3      29.68S
$$
MIZ004>006-011>014-085-210500-
CENTRAL UPPER MICHIGAN

CITY           SKY/WX    TMP DP  RH WIND       PRES   REMARKS
MANISTIQUE     CLOUDY    32  32  99 E7        29.69F FOG     WCI  26
ESCANABA       CLOUDY    33  32  96 CALM      29.70S
SAWYER-GWINN   MIX PCPN  32  32  99 S3        29.66S
$$
MIZ001>003-009>011-084-210500-
WESTERN UPPER MICHIGAN

CITY           SKY/WX    TMP DP  RH WIND       PRES   REMARKS
IRON MOUNTAIN  FOG       33  31  92 SE5       29.65R VSB 1/4 WCI  29
HOUGHTON       LGT RAIN  34  31  88 CALM      29.63F FOG
IRONWOOD       LGT RAIN  35  34  96 E3        29.61F
$$

ABBREVIATIONS USED IN REMARKS
   TC - TEMPERATURE IN CELSIUS
  WCI - WIND CHILL INDEX
   HX - HEAT INDEX
  VSB - VISIBILITY





USA.gov is the U.S. government's official web portal to all federal, state and local government web resources and services.